www.pogodaiklimat.ru

Погода и климат >> Архив погоды >> Индия >> Digha


ПОГОДА в Digha

  • Прогноз погоды в Digha
  • Монитор погоды в Digha
  • Климат города

АРХИВ ПОГОДЫ в Digha

Время (UTC), дата Ветер
(напр.,м/с)
 
Видим.   Явления Облачность Т
(С)
Тd
(С)
f
(%)
Тe
(С)
Тes
(С)
Комфортность P
(гПа)
Po
(гПа)
Тmin
(С)
Tmax
(С)
R
(мм)
R24
(мм)
S
(см)
00 14.09 штиль 0 4000 м 5/1 600 м
[Sc Ac trans]
+29.0 +27.1 90 +46 +46 опасность
перегрева
1005.7 1006.0
03 14.09 штиль 0 4000 м 8/3 600 м
[Sc Ac trans Ci fib]
+30.4 +27.4 84 +49 +54 опасность
перегрева
1006.7 1007.0 +26.8
06 14.09 ЮВ 1 4000 м 8/4 600 м
[Sc diur, vesp Ac As Ci sp]
+32.4 +27.5 75 +51 +61 опасность
перегрева
1005.3 1005.0
09 14.09 СВ 1 4000 м гроза, ливневой дождь 9/5 600 м
[Cb cap Ac As]
+30.0 +27.2 85 +48 +50 опасность
перегрева
1004.2 1004.0 0.9
12 14.09 штиль 0 4000 м {гроза, дождь} 9/3 600 м
[Sc Ac trans Ci sp]
+30.0 +27.2 85 +48 +48 опасность
перегрева
1004.5 1005.0 +34.0 0.9
15 14.09 штиль 0 4000 м 5/3 600 м
[Sc diur, vesp Ac trans]
+28.4 +25.6 85 +42 +42 опасность
перегрева
1006.4 1006.0 0.9
18 14.09 С 1 4000 м 5/3 600 м
[Sc diur, vesp Ac trans Ci fib]
+27.4 +25.1 87 +39 +39 очень
душно
1006.8 1007.0 0.9
21 14.09 СВ 1 4000 м 6/4 600 м
[Sc diur, vesp Ac trans]
+27.2 +25.2 89 +39 +39 очень
душно
1006.6 1007.0 0.9
00 15.09 С 1 4000 м 5/4 600 м
[Sc diur, vesp Ac trans]
+27.0 +25.6 92 +40 +40 очень
душно
1006.5 1007.0 0.9
03 15.09 С 1 4000 м 4/4 600 м
[Sc diur, vesp]
+29.0 +26.8 88 +45 +52 опасность
перегрева
1007.9 1008.0 +25.7 0.9
06 15.09 С 1 4000 м 5/4 600 м
[Sc diur, vesp Ac trans]
+34.6 +27.2 66 +53 +66 опасность
перегрева
1007.1 1007.0
09 15.09 штиль 0 4000 м гроза, ливневой дождь 10/4 600 м
[Cb cap Ac As]
+30.6 +25.5 74 +45 +47 опасность
перегрева
1004.7 1005.0 0.1
12 15.09 С 1 4000 м {гроза, дождь} 6/4 600 м
[Sc diur, vesp Ac trans]
+27.0 +24.1 84 +37 +37 очень
душно
1004.3 1004.0 +35.0 0.7
15 15.09 С 1 4000 м 8/5 600 м
[Sc diur, vesp Ac trans]
+27.0 +25.3 90 +39 +39 очень
душно
1006.6 1007.0 0.7
18 15.09 С 1 4000 м 6/4 600 м
[Sc diur, vesp Ac trans]
+26.6 +25.2 92 +38 +38 очень
душно
1006.3 1006.0 0.7
21 15.09 СВ 1 4000 м 6/4 600 м
[Sc diur, vesp Ac trans]
+26.2 +25.1 94 +38 +38 очень
душно
1005.6 1006.0 0.7
00 16.09 С 1 4000 м 5/4 600 м
[Sc diur, vesp Ac trans]
+26.0 +25.1 95 +37 +37 очень
душно
1005.1 1005.0 0.7
03 16.09 С 2 4000 м 3/1 1000 м
[Sc diur, vesp Ac trans]
+29.0 +26.5 86 +44 +52 опасность
перегрева
1006.6 1007.0 +25.0 0.7
06 16.09 С 2 4000 м 6/4 600 м
[Sc diur, vesp Ac trans]
+33.2 +27.1 70 +51 +61 опасность
перегрева
1005.5 1006.0
09 16.09 С 1 4000 м гроза без осадков 6/4 600 м
[Cb cap Ac trans]
+35.0 +25.8 59 +50 +57 опасность
перегрева
1002.7 1003.0
12 16.09 Ю 1 4000 м {гроза, морось} 9/5 600 м
[Sc diur, vesp Ac As]
+31.4 +26.4 75 +48 +48 опасность
перегрева
1002.6 1003.0 +35.2 0.0
15 16.09 СЗ 1 4000 м 9/5 600 м
[Sc diur, vesp Ac trans]
+29.0 +24.1 75 +40 +40 очень
душно
1004.5 1005.0 0.0
18 16.09 СЗ 2 4000 м 8/4 600 м
[Sc diur, vesp Ac trans]
+27.4 +25.7 90 +40 +40 очень
душно
1004.6 1005.0 0.0
21 16.09 СЗ 1 4000 м 4/3 600 м
[Sc Ac trans]
+27.0 +25.0 89 +39 +39 очень
душно
1004.0 1004.0 0.0
00 17.09 СЗ 2 4000 м 4/1 600 м
[Sc Ac trans]
+26.4 +24.7 90 +37 +37 очень
душно
1003.6 1004.0 0.0
03 17.09 СЗ 2 4000 м 3/0 2000 м
[Ac trans]
+29.0 +25.6 82 +43 +50 опасность
перегрева
1004.6 1005.0 +25.1 0.0
06 17.09 СВ 1 4000 м 3/3 600 м
[Sc diur, vesp]
+34.4 +27.1 66 +53 +69 опасность
перегрева
1003.7 1004.0
09 17.09 С 2 4000 м 5/4 600 м
[Sc diur, vesp Ac trans]
+35.4 +26.3 59 +51 +57 опасность
перегрева
1001.0 1001.0
12 17.09 ЮЗ 1 4000 м 4/3 1000 м
[Sc diur, vesp Ac trans]
+33.8 +27.5 70 +53 +53 опасность
перегрева
1001.0 1001.0 +36.0
15 17.09 ЮЗ 1 4000 м 3/0 2000 м
[Ac trans]
+31.2 +27.6 81 +50 +50 опасность
перегрева
1003.2 1003.0
18 17.09 З 1 4000 м 3/0 2000 м
[Ac trans]
+29.8 +27.0 85 +47 +47 опасность
перегрева
1003.7 1004.0
21 17.09 С 1 4000 м 1/0 2000 м
[Ac trans]
+29.0 +26.8 88 +45 +45 опасность
перегрева
1003.5 1004.0
00 18.09 С 1 4000 м 1/0 2000 м
[Ac trans]
+27.4 +25.4 89 +40 +40 очень
душно
1003.4 1003.0
03 18.09 С 1 4000 м 4/3 600 м
[Sc diur, vesp Ac trans]
+30.0 +26.9 84 +47 +54 опасность
перегрева
1004.0 1004.0 +26.3
06 18.09 С 2 4000 м 4/3 600 м
[Sc diur, vesp Ac trans]
+34.2 +26.4 64 +51 +64 опасность
перегрева
1003.6 1004.0
09 18.09 В 1 4000 м 4/3 600 м
[Sc diur, vesp Ac trans]
+36.2 +27.8 62 +56 +64 опасность
перегрева
1000.8 1001.0
12 18.09 Ю 1 4000 м 4/1 600 м
[Sc Ac trans Ci fib]
+33.2 +27.4 72 +52 +52 опасность
перегрева
1001.2 1001.0 +36.3
15 18.09 штиль 0 4000 м 1/0 2000 м
[Ac trans]
+31.0 +27.7 83 +51 +51 опасность
перегрева
1003.6 1004.0
18 18.09 штиль 0 4000 м 1/0 2000 м
[Ac trans]
+30.6 +28.1 87 +51 +51 опасность
перегрева
1003.9 1004.0
21 18.09 штиль 0 4000 м ясно +29.4 +27.5 90 +48 +48 опасность
перегрева
1003.6 1004.0
00 19.09 СЗ 1 4000 м ясно +28.0 +26.6 92 +43 +43 опасность
перегрева
1003.3 1003.0
03 19.09 СВ 3 4000 м 4/0 2000 м
[Ac trans]
+31.0 +26.8 78 +48 +54 опасность
перегрева
1004.3 1004.0 +26.9
06 19.09 СВ 2 4000 м 6/4 600 м
[Sc diur, vesp Ac trans]
+34.0 +26.8 66 +51 +61 опасность
перегрева
1003.6 1004.0
09 19.09 СВ 2 4000 м 6/4 600 м
[Sc diur, vesp Ci fib]
+35.8 +26.1 57 +51 +57 опасность
перегрева
1000.7 1001.0
12 19.09 СЗ 2 4000 м 4/1 600 м
[Sc diur, vesp Ac trans Ci fib]
+31.8 +26.5 74 +49 +49 опасность
перегрева
1000.1 1000.0 +35.9
15 19.09 С 1 4000 м гроза без осадков 10/5 600 м
[Cb cap Ac As]
+30.4 +26.8 81 +47 +47 опасность
перегрева
1001.5 1002.0
18 19.09 С 2 4000 м зарница {гроза, дождь} 10/4 600 м
[Cb cap Ac As]
+25.2 +25.2 100 +36 +36 очень
душно
1003.2 1003.0 112
21 19.09 СЗ 2 4000 м гроза без осадков {дождь} 10/4 600 м
[Cb cap Ac As]
+25.4 +25.1 98 +36 +36 очень
душно
1001.8 1002.0 113
00 20.09 С 2 2000 м слабый дождь {гроза} 10/5 600 м
[Sc Ac As]
+25.6 +25.3 98 +37 +37 очень
душно
1000.4 1000.0 117
03 20.09 В 5 4000 м слабая морось {дождь} 10/6 600 м
[Sc Ac As]
+25.8 +25.5 98 +38 +38 очень
душно
1002.7 1003.0 +23.5 156
06 20.09 В 5 4000 м слабый дождь {морось} 8/4 600 м
[Sc Ac trans]
+28.8 +28.3 97 +48 +52 опасность
перегрева
1001.7 1002.0 6
09 20.09 В 6 4000 м в посл. час гроза {дождь} 9/5 600 м
[Sc diur, vesp Ac As]
+27.0 +26.4 97 +41 +42 опасность
перегрева
999.6 1000.0 27
12 20.09 В 4 4000 м слабый дождь {гроза} 10/5 600 м
[Sc diur, vesp Ac As]
+27.8 +25.8 89 +41 +41 опасность
перегрева
1000.2 1000.0 +29.7
15 20.09 В 3 4000 м в посл. час дождь 10/6 600 м
[Sc diur, vesp Ac As]
+26.0 +25.4 97 +38 +38 очень
душно
1002.3 1002.0 47
18 20.09 В 5 4000 м слабый дождь 10/6 600 м
[Sc diur, vesp Ac As]
+26.4 +26.1 98 +39 +39 очень
душно
1002.3 1002.0 55

 

Местоположение метеостанции Digha (West Bengal, Индия): широта 21.62 долгота 87.50 высота над уровнем моря 6 м.

В архиве по умолчанию представлена погода в Digha за последнюю неделю. Архивные данные за месяц целиком и за предыдущие месяцы, начиная с января 2011 года, Вы можете получить, выбрав интересующий диапазон дат из раскрывающегося списка и нажав кнопку "Ввод!".


*Определитесь, кто Вы:
робот инопланетянин человек

Внимание! Время в таблицах - всемирное. Для получения местного времени необходимо прибавить поправку, которая в Digha равна 5.5 ч.

Смотрите также архив погоды в соседних городах и на ближайших метеорологических станциях:

Погода в Contai (West Bengal, Индия) (31 км)
Погода в Balasore (Orissa, Индия) (60 км)
Погода в Haldia (West Bengal, Индия) (73 км)
Погода в Baripada (Orissa, Индия) (83 км)
Погода в Midnapore (West Bengal, Индия) (91 км)
Погода в Diamond Harbour (West Bengal, Индия) (95 км)
Погода в Uluberia (West Bengal, Индия) (108 км)
Погода в Chandbali (Orissa, Индия) (123 км)
Погода в Kolkata (West Bengal, Индия) (133 км)
Погода в Canning (West Bengal, Индия) (140 км)

Пояснения к столбцам:

Ветер - указаны скорость ветра в м/с - средняя за 10 мин, порывы в срок и между сроками (в фигурных скобках) и направление, откуда дует ветер: С - северный, СВ - северо-восточный, В - восточный, ЮВ - юго-восточный, Ю - южный, ЮЗ - юго-западный, З - западный, СЗ - северо-западный.
Видимость - горизонтальная дальность видимости в метрах или километрах. При видимости от 1 до 10 км при отсутствии осадков обычно наблюдается дымка, при ухудшении видимости до 1 км и менее - туман. В сухую погоду видимость может ухудшаться дымом, пылью или мглою.
Явления - указаны атмосферные явления, наблюдавшиеся в срок или в последний час перед сроком; фигурными скобками обозначены явления, наблюдавшиеся между сроками (за 1-3 часа до срока); квадратными скобками обозначены град или гололедные отложения с указанием их диаметра в мм.
Облачность - указаны через наклонную черту общая и нижняя облачность в баллах и высота нижней границы облаков в метрах; квадратными скобками обозначены формы облаков: Ci - перистые, Cs - перисто-слоистые, Cc - перисто-кучевые, Ac - высококучевые, As - высокослоистые, Sc - слоисто-кучевые, Ns - слоисто-дождевые, Cu - кучевые, Cb - кучево-дождевые. Подробнее классификацию облаков см. в Атласе облаков (PDF).
T - Температура воздуха - температура, измеренная на высоте 2 м над землей.
Td - Температура точки росы - температура, при понижении до которой содержащийся в воздухе водяной пар достигнет насыщения.
f - Относительная влажность воздуха - влажноcть воздуха, измеренная на высоте 2 м над землей.
Te - Эффективная температура - температура, которую ощущает одетый по сезону человек в тени. Характеристика душности погоды. При расчете учитывается влияние влажности воздуха и скорости ветра на теплоощущения человека.
Tes - Эффективная температура на солнце - температура, которую ощущает человек, с поправкой на солнечный нагрев. Характеристика знойности погоды. Зависит от высоты солнца над горизонтом, облачности и скорости ветра. Ночью, в пасмурную погоду, а также при ветре 12 м/с и более поправка равна нулю.
P - Атмосферное давление - приведенное к уровню моря атмосферное давление.
Po - Атмосферное давление - измеренное на уровне метеостанции атмосферное давление.
Tmin - Минимальная температура - минимум температуры воздуха на высоте 2 м над землей.
Tmax - Максимальная температура - максимум температуры воздуха на высоте 2 м над землей.
R - Количество осадков - Количество выпавших осадков за период времени, мм. При наведении курсора мыши на число - период времени, за который выпало указанное количество осадков.
R24 - Количество осадков - Количество выпавших осадков за 24 часа, мм.
S - Снежный покров - Высота снежного покрова, см. При наведении курсора мыши на число - состояние снежного покрова и степень покрытия местности в баллах.